Wind_Speed
16 14 12 12 13 12 12 12 11 9 8 8 8 7 8 7 5 6 6 5 5 4 4 6 6 6 7 7 7 8 6 5 5 5 5 6 6 7 7 6 4 5
15 14 13 12 13 12 12 11 9 9 8 8 7 8 9 7 6 5 5 5 5 4 4 5 6 6 7 7 7 8 7 6 6 6 6 6 7 7 7 5 4 4
15 14 14 14 13 12 11 11 9 8 8 8 7 7 8 7 6 5 6 6 5 5 6 6 6 6 6 7 7 7 7 6 7 8 7 6 6 7 8 6 4 6
15 15 14 14 13 12 11 10 9 8 8 8 8 6 6 7 7 6 6 6 6 6 7 6 6 6 6 6 6 6 7 6 7 8 7 6 5 7 9 8 5 6
15 15 14 14 13 13 13 12 11 10 10 8 8 7 7 7 7 6 6 6 6 6 6 6 6 6 6 6 6 6 6 6 6 7 7 6 6 6 8 8 6 6
15 15 14 14 13 13 13 13 13 12 10 8 7 7 7 7 6 6 6 6 6 6 7 6 6 6 6 6 6 7 6 6 7 7 6 7 6 6 8 9 7 8
16 16 15 14 13 11 11 12 12 11 9 8 7 5 5 6 6 6 6 5 4 5 6 5 5 6 6 6 6 6 6 7 7 6 5 6 6 6 8 9 9 10
15 16 16 15 13 12 10 11 13 12 10 9 8 7 7 6 6 6 6 6 4 5 5 4 5 6 6 5 5 6 6 7 7 6 5 5 5 6 7 8 10 11
16 16 17 18 17 15 13 12 12 11 10 10 10 9 8 7 7 6 6 7 7 7 7 6 6 7 7 5 5 6 7 7 7 6 5 5 6 6 6 7 9 9
17 15 16 18 19 17 15 13 12 10 10 11 11 11 9 9 9 8 8 9 9 9 9 8 9 9 8 7 7 8 7 7 7 7 7 7 6 6 6 6 7 7
17 16 16 17 17 17 15 13 12 11 11 11 11 11 11 11 12 10 9 10 11 11 11 12 12 11 10 10 9 8 7 7 7 8 8 8 8 7 7 8 9 9
18 18 18 18 18 18 17 14 13 12 11 11 10 10 10 11 13 12 11 11 12 12 12 12 13 13 12 12 10 9 8 8 8 8 8 8 9 9 9 9 9 9
20 20 20 19 19 20 19 18 17 15 14 13 12 12 11 11 13 13 13 13 12 12 11 12 12 13 13 12 11 10 10 10 10 9 8 9 10 10 10 9 10 12
19 18 17 17 17 18 19 19 20 20 18 15 14 13 13 13 13 13 12 13 13 13 12 11 11 13 13 13 12 11 12 12 11 10 10 11 11 10 12 12 12 13
19 17 16 15 15 16 17 19 20 20 21 19 16 15 15 14 15 14 12 10 12 14 13 12 11 12 13 14 12 11 11 12 12 12 12 12 11 11 14 14 11 11
21 21 20 18 17 17 17 18 19 19 21 23 20 17 16 16 15 16 15 13 11 12 14 14 15 14 14 13 11 9 9 10 11 12 12 12 11 11 14 14 12 11
21 22 22 21 20 20 19 19 19 19 19 21 23 21 20 19 17 16 17 18 17 15 14 14 15 16 15 14 11 9 10 10 10 11 11 11 10 9 10 11 11 12
19 19 20 21 21 22 21 21 21 21 19 18 21 22 22 22 21 19 19 20 21 21 19 16 15 16 16 15 12 11 11 12 12 12 12 12 12 11 11 10 11 11
16 16 19 21 22 23 23 23 23 23 22 20 20 22 23 23 24 24 24 23 23 24 24 22 19 16 15 15 14 12 11 13 14 14 15 15 16 16 15 15 15 14
16 16 17 19 20 21 22 22 23 24 25 24 23 24 24 24 24 25 26 26 25 24 25 25 23 20 17 16 16 14 14 15 15 16 17 18 18 18 18 18 18 17
18 18 18 18 19 19 20 22 24 26 26 26 26 26 26 26 26 25 26 27 26 24 25 25 25 25 23 20 18 17 15 16 17 18 19 19 19 20 20 20 19 18
20 20 20 20 20 20 21 22 24 25 27 27 28 28 28 28 28 28 29 30 30 29 29 27 26 26 26 24 22 19 17 16 18 19 19 20 20 21 21 21 19 19
18 19 20 20 20 20 21 21 21 21 22 22 23 25 26 28 29 28 28 28 28 29 32 31 29 28 27 26 25 22 19 19 19 19 19 20 20 20 20 20 19 19
16 18 18 19 19 19 19 19 18 18 19 20 21 22 23 24 25 24 24 25 25 25 29 31 31 30 29 27 26 23 21 19 19 19 19 19 19 19 18 18 19 19
12 13 14 14 14 14 14 14 14 15 17 19 20 21 21 21 21 21 22 23 24 24 25 29 31 31 30 28 26 24 21 19 18 17 17 17 18 17 17 17 17 18
7 8 9 9 7 6 7 10 11 11 12 12 12 13 15 15 16 17 17 18 20 22 24 27 28 29 29 28 26 23 22 20 18 17 16 15 15 15 16 16 17 17
Wind_Direction
189 192 190 181 180 179 177 181 182 183 183 180 184 191 191 183 178 185 184 187 197 197 205 205 201 207 209 211 215 212 217 227 215 215 217 204 201 200 185 183 216 262
188 190 189 182 183 180 171 173 177 181 180 178 182 184 185 189 187 187 190 192 196 189 188 200 205 209 208 205 213 219 224 229 225 227 224 207 207 208 195 191 211 244
188 187 186 183 186 181 170 172 176 179 186 187 186 180 184 201 204 194 198 203 202 190 179 188 201 207 211 209 209 213 216 221 221 224 226 218 219 219 201 191 219 237
190 188 186 185 188 182 173 175 177 180 194 197 193 195 207 218 216 205 203 208 209 198 183 186 199 205 213 215 210 211 211 210 214 223 237 240 236 225 204 197 228 243
194 190 186 187 190 187 181 183 186 190 201 202 196 210 225 221 211 207 207 205 207 210 202 201 206 207 217 221 217 221 222 213 215 226 242 251 249 233 209 201 222 245
196 194 189 189 191 191 191 194 196 197 201 202 201 214 225 217 207 207 207 204 208 215 210 211 215 210 214 221 219 222 226 224 223 224 232 243 248 234 213 207 226 246
199 197 194 191 189 192 197 202 203 200 194 196 204 217 223 217 216 219 215 208 209 213 209 211 222 216 208 208 212 218 226 234 237 236 240 247 250 241 226 223 235 242
207 203 198 193 193 201 207 205 204 199 187 191 211 230 236 229 224 230 233 230 231 231 233 237 240 234 226 215 215 221 224 235 246 246 243 248 259 260 248 242 243 245
212 209 203 198 195 201 209 207 202 198 188 194 216 228 234 236 237 243 239 236 242 245 246 254 256 249 246 241 239 237 228 229 242 246 240 247 264 267 257 250 248 252
212 208 206 203 198 199 206 204 199 200 198 201 213 220 227 234 237 238 230 229 243 250 244 250 258 257 255 257 258 252 242 235 241 248 250 253 262 262 255 259 259 262
207 204 207 206 201 202 208 205 199 203 210 213 213 212 219 228 230 234 235 233 242 249 247 247 252 256 257 258 260 257 253 252 251 250 251 251 256 258 255 255 257 263
209 209 211 209 204 201 202 203 201 205 216 229 232 223 218 223 229 240 250 246 246 254 257 254 253 255 254 255 256 251 250 258 257 254 254 253 255 259 261 259 256 264
216 217 216 216 211 203 200 200 199 200 207 219 230 232 229 226 231 241 249 249 255 265 269 263 258 258 258 258 255 247 244 250 254 257 258 257 257 259 261 259 255 261
219 218 218 220 214 207 207 207 201 198 202 206 209 213 216 220 227 239 250 253 257 268 277 276 263 254 251 252 252 248 246 247 249 255 259 260 263 261 256 251 248 256
209 207 212 218 218 217 221 222 215 207 205 208 207 201 202 210 217 226 238 245 249 258 269 272 261 253 251 249 247 249 253 252 249 251 255 258 263 264 265 264 257 256
206 202 202 205 210 216 223 229 230 223 214 214 214 207 205 209 212 217 223 226 229 239 246 249 250 255 258 253 243 242 249 253 251 251 254 260 266 273 277 278 271 266
216 210 207 208 209 212 217 224 231 233 226 220 219 217 215 215 215 217 221 224 229 234 241 248 248 248 252 249 239 236 240 242 248 253 257 262 266 267 273 277 275 274
218 214 213 216 218 219 223 228 233 237 235 227 225 226 225 224 226 228 228 228 231 234 240 249 247 245 249 249 241 240 241 237 240 249 257 260 256 251 256 266 274 277
219 218 216 219 221 222 225 230 233 236 238 236 233 231 229 229 231 235 236 236 236 238 242 247 249 250 252 246 238 237 237 234 237 245 254 259 261 262 266 270 275 279
224 225 224 224 226 225 226 228 231 234 238 240 241 239 237 235 234 236 239 239 238 241 245 248 250 253 253 246 239 236 234 234 238 244 251 258 263 268 273 276 278 280
234 235 234 233 234 234 235 235 236 238 241 242 245 245 244 243 241 240 241 240 239 241 245 248 250 252 254 253 247 240 235 236 239 243 249 255 260 267 273 277 278 277
236 237 237 238 239 239 240 242 242 243 244 245 247 249 250 250 249 247 247 246 245 244 245 247 248 251 254 253 248 243 240 241 242 244 248 254 259 266 271 275 277 276
233 234 236 237 237 237 239 243 247 250 250 250 251 253 254 253 252 251 252 252 250 248 247 247 247 249 251 249 247 246 245 246 245 246 250 255 259 265 270 274 276 274
231 232 235 235 237 240 244 249 255 258 258 256 255 255 254 252 252 252 252 252 250 247 246 247 247 249 249 247 246 246 243 243 246 250 253 257 261 267 272 274 273 271
230 232 233 233 237 243 248 251 254 255 255 256 256 256 254 252 253 254 254 254 251 247 245 244 243 243 244 243 242 240 236 237 246 253 255 259 264 268 271 271 268 266
228 231 232 230 226 223 224 227 230 234 241 247 253 256 259 260 262 266 266 261 254 250 246 240 236 236 239 241 239 234 231 236 247 253 254 257 263 266 268 268 264 261
Height
1589 1591 1592 1593 1594 1595 1596 1597 1598 1599 1599 1599 1600 1601 1602 1603 1603 1604 1605 1605 1606 1606 1607 1607 1608 1608 1609 1609 1610 1610 1611 1611 1611 1611 1611 1612 1612 1612 1612 1612 1612 1612
1588 1590 1591 1593 1594 1595 1595 1596 1597 1598 1599 1599 1600 1601 1602 1602 1603 1604 1604 1605 1606 1606 1606 1607 1607 1608 1608 1609 1609 1610 1610 1611 1611 1611 1611 1611 1611 1612 1612 1612 1612 1612
1587 1589 1590 1592 1593 1594 1594 1595 1597 1598 1598 1599 1600 1601 1602 1602 1603 1603 1604 1605 1605 1606 1606 1607 1607 1608 1608 1609 1609 1609 1610 1610 1610 1610 1610 1611 1611 1611 1612 1612 1612 1612
1587 1588 1589 1591 1592 1593 1594 1595 1596 1597 1598 1599 1599 1600 1601 1602 1602 1603 1604 1604 1605 1605 1606 1606 1607 1607 1608 1608 1609 1609 1609 1609 1610 1610 1610 1610 1610 1611 1611 1611 1611 1612
1586 1587 1588 1590 1591 1592 1593 1594 1595 1596 1597 1598 1599 1600 1601 1602 1602 1602 1603 1604 1604 1605 1605 1606 1606 1607 1608 1608 1608 1608 1609 1609 1609 1609 1609 1610 1610 1610 1611 1611 1610 1611
1585 1586 1587 1589 1590 1591 1593 1594 1595 1595 1596 1597 1598 1599 1600 1601 1602 1602 1602 1603 1604 1604 1605 1605 1606 1606 1607 1607 1608 1608 1608 1608 1608 1609 1609 1609 1610 1610 1610 1610 1610 1610
1583 1585 1586 1588 1589 1590 1592 1593 1594 1595 1596 1597 1598 1599 1600 1600 1601 1601 1602 1602 1603 1603 1604 1605 1605 1606 1606 1607 1607 1607 1607 1608 1608 1608 1608 1609 1609 1609 1609 1609 1609 1609
1582 1583 1585 1586 1588 1589 1591 1592 1593 1594 1595 1596 1597 1598 1599 1600 1600 1601 1601 1601 1602 1603 1603 1604 1604 1605 1605 1606 1606 1607 1607 1607 1607 1607 1608 1608 1608 1608 1608 1608 1608 1608
1581 1582 1584 1585 1586 1588 1589 1590 1592 1593 1594 1595 1597 1598 1598 1599 1599 1600 1600 1601 1601 1602 1603 1603 1604 1604 1605 1605 1605 1606 1606 1606 1606 1606 1606 1606 1607 1607 1607 1607 1607 1607
1580 1581 1583 1584 1585 1587 1588 1589 1591 1592 1594 1595 1596 1597 1597 1598 1598 1599 1600 1600 1601 1601 1602 1602 1603 1603 1604 1604 1604 1605 1605 1605 1605 1605 1605 1605 1605 1605 1606 1606 1606 1606
1578 1580 1581 1583 1584 1586 1587 1589 1590 1591 1593 1594 1595 1596 1596 1597 1598 1598 1599 1599 1600 1600 1601 1601 1602 1602 1602 1603 1603 1603 1604 1604 1604 1604 1604 1604 1604 1604 1605 1605 1605 1605
1576 1579 1580 1582 1583 1585 1586 1588 1589 1591 1592 1592 1593 1594 1595 1596 1596 1597 1597 1598 1598 1599 1599 1600 1600 1601 1601 1601 1602 1602 1602 1603 1603 1603 1603 1603 1603 1603 1603 1604 1604 1604
1575 1577 1579 1581 1582 1584 1585 1586 1588 1589 1590 1591 1591 1592 1593 1594 1594 1595 1596 1596 1597 1597 1598 1598 1599 1599 1600 1600 1601 1601 1601 1602 1602 1602 1602 1602 1602 1602 1602 1602 1602 1602
1575 1578 1579 1581 1582 1583 1584 1585 1586 1587 1588 1588 1589 1590 1591 1592 1593 1593 1593 1594 1594 1595 1596 1596 1597 1597 1598 1598 1599 1599 1600 1600 1600 1600 1601 1601 1601 1601 1600 1599 1599 1600
1576 1578 1579 1581 1582 1583 1584 1584 1584 1585 1586 1586 1587 1588 1588 1589 1590 1591 1591 1591 1592 1593 1594 1594 1594 1595 1595 1596 1597 1597 1598 1598 1598 1599 1599 1599 1600 1599 1597 1597 1598 1600
1575 1576 1577 1579 1580 1581 1582 1583 1583 1584 1584 1584 1585 1586 1586 1587 1588 1589 1589 1589 1590 1591 1591 1592 1592 1593 1593 1594 1595 1595 1596 1596 1597 1597 1597 1597 1598 1598 1597 1596 1598 1599
1574 1576 1576 1577 1577 1578 1580 1581 1582 1582 1582 1583 1583 1584 1585 1585 1586 1586 1586 1587 1588 1588 1589 1589 1590 1591 1591 1592 1592 1593 1593 1594 1595 1595 1596 1596 1596 1596 1596 1596 1597 1597
1572 1574 1574 1575 1575 1576 1577 1577 1578 1579 1580 1581 1581 1582 1582 1583 1584 1584 1584 1585 1585 1586 1586 1587 1587 1588 1589 1590 1590 1590 1591 1592 1593 1594 1594 1594 1594 1594 1594 1595 1595 1596
1570 1571 1571 1572 1572 1573 1574 1574 1575 1577 1577 1578 1578 1578 1579 1580 1581 1581 1581 1582 1582 1583 1583 1584 1585 1586 1586 1587 1588 1588 1589 1590 1591 1591 1591 1591 1591 1592 1593 1593 1593 1594
1567 1567 1568 1569 1569 1570 1571 1571 1572 1574 1574 1574 1575 1575 1576 1577 1577 1578 1579 1579 1579 1580 1581 1581 1582 1583 1584 1585 1585 1586 1587 1588 1589 1589 1589 1589 1589 1590 1590 1591 1591 1591
1563 1564 1565 1566 1567 1568 1568 1568 1569 1570 1571 1571 1571 1572 1572 1573 1574 1575 1575 1575 1576 1578 1578 1579 1580 1581 1582 1582 1583 1584 1585 1585 1586 1586 1586 1586 1587 1587 1588 1588 1588 1589
1560 1560 1561 1562 1563 1564 1564 1565 1566 1566 1567 1568 1568 1569 1569 1569 1570 1571 1571 1572 1573 1575 1575 1576 1577 1578 1579 1580 1580 1581 1582 1583 1583 1583 1583 1584 1584 1585 1585 1585 1586 1586
1557 1557 1558 1559 1560 1561 1562 1562 1563 1564 1565 1565 1565 1566 1566 1566 1566 1567 1567 1568 1570 1572 1572 1573 1575 1576 1577 1578 1578 1578 1579 1580 1580 1580 1581 1581 1582 1582 1583 1583 1584 1583
1554 1555 1556 1557 1557 1559 1560 1561 1562 1562 1563 1562 1563 1562 1562 1562 1562 1563 1564 1565 1567 1568 1569 1570 1572 1573 1574 1575 1575 1575 1576 1577 1578 1578 1578 1579 1579 1580 1581 1581 1581 1581
1553 1553 1554 1555 1556 1557 1559 1560 1560 1560 1560 1559 1559 1559 1559 1559 1560 1561 1562 1562 1562 1564 1565 1566 1567 1569 1570 1572 1572 1573 1573 1574 1575 1576 1575 1576 1577 1577 1578 1579 1579 1579
1552 1553 1554 1554 1555 1556 1557 1558 1558 1558 1557 1557 1557 1557 1557 1558 1558 1558 1558 1557 1557 1559 1560 1561 1563 1565 1566 1568 1569 1569 1570 1571 1572 1573 1573 1574 1574 1574 1575 1575 1576 1577